TimeCST,TemperatureF,Dew PointF,Humidity,Sea Level PressureIn,VisibilityMPH,Wind Direction,Wind SpeedMPH,Gust SpeedMPH,PrecipitationIn,Events,Conditions,WindDirDegrees,DateUTC
12:15 AM,6.8,-2.2,67,29.85,10.0,West,23.0,26.5,N/A,,Overcast,260,2014-02-23 06:15:00
12:35 AM,6.8,-2.2,67,29.86,10.0,West,20.7,24.2,N/A,,Overcast,260,2014-02-23 06:35:00
12:55 AM,6.8,-2.2,67,29.86,10.0,West,18.4,26.5,N/A,,Overcast,260,2014-02-23 06:55:00
1:15 AM,5.0,-2.2,72,29.87,10.0,West,19.6,27.6,N/A,,Overcast,260,2014-02-23 07:15:00
1:35 AM,5.0,-2.2,72,29.87,10.0,West,19.6,24.2,N/A,,Overcast,260,2014-02-23 07:35:00
1:55 AM,5.0,-2.2,72,29.88,10.0,West,18.4,-,N/A,,Overcast,260,2014-02-23 07:55:00
2:15 AM,5.0,-2.2,72,29.88,10.0,WSW,18.4,24.2,N/A,,Overcast,250,2014-02-23 08:15:00
2:35 AM,5.0,-2.2,72,29.88,10.0,West,18.4,25.3,N/A,,Overcast,260,2014-02-23 08:35:00
2:55 AM,3.2,-2.2,78,29.88,10.0,WSW,17.3,24.2,N/A,,Overcast,250,2014-02-23 08:55:00
3:15 AM,3.2,-2.2,78,29.88,10.0,West,18.4,-,N/A,,Overcast,260,2014-02-23 09:15:00
3:35 AM,3.2,-2.2,78,29.89,10.0,West,17.3,21.9,N/A,,Overcast,260,2014-02-23 09:35:00
3:55 AM,3.2,-2.2,78,29.89,10.0,West,17.3,24.2,N/A,,Overcast,260,2014-02-23 09:55:00
4:15 AM,3.2,-4.0,72,29.89,10.0,West,18.4,25.3,N/A,,Overcast,260,2014-02-23 10:15:00
4:35 AM,3.2,-2.2,78,29.89,10.0,West,21.9,25.3,N/A,,Overcast,260,2014-02-23 10:35:00
4:55 AM,3.2,-4.0,72,29.90,10.0,WSW,18.4,23.0,N/A,,Overcast,250,2014-02-23 10:55:00
5:15 AM,3.2,-4.0,72,29.90,10.0,WSW,18.4,24.2,N/A,,Overcast,250,2014-02-23 11:15:00
5:35 AM,3.2,-4.0,72,29.91,10.0,West,17.3,25.3,N/A,,Overcast,260,2014-02-23 11:35:00
5:55 AM,3.2,-4.0,72,29.91,10.0,WSW,17.3,26.5,N/A,,Overcast,250,2014-02-23 11:55:00
6:15 AM,3.2,-4.0,72,29.91,10.0,WSW,17.3,-,N/A,,Overcast,250,2014-02-23 12:15:00
6:35 AM,1.4,-4.0,78,29.91,10.0,West,17.3,21.9,N/A,,Overcast,260,2014-02-23 12:35:00
6:55 AM,1.4,-4.0,78,29.91,10.0,WSW,17.3,23.0,N/A,,Overcast,250,2014-02-23 12:55:00
7:15 AM,1.4,-5.8,72,29.92,10.0,West,15.0,23.0,N/A,,Overcast,260,2014-02-23 13:15:00
7:35 AM,1.4,-2.2,85,29.92,8.0,WSW,16.1,23.0,N/A,,Overcast,250,2014-02-23 13:35:00
7:55 AM,3.2,-4.0,72,29.92,5.0,West,17.3,-,N/A,,Overcast,260,2014-02-23 13:55:00
8:15 AM,3.2,-4.0,72,29.93,2.5,West,19.6,-,N/A,,Overcast,260,2014-02-23 14:15:00
8:35 AM,3.2,-4.0,72,29.93,2.5,West,19.6,-,N/A,,Overcast,260,2014-02-23 14:35:00
8:55 AM,3.2,-4.0,72,29.93,5.0,West,18.4,-,N/A,,Overcast,260,2014-02-23 14:55:00
9:15 AM,3.2,-4.0,72,29.94,5.0,West,17.3,24.2,N/A,,Overcast,270,2014-02-23 15:15:00
9:35 AM,3.2,-2.2,78,29.94,7.0,West,15.0,25.3,N/A,,Overcast,270,2014-02-23 15:35:00
9:55 AM,3.2,-2.2,78,29.94,9.0,West,19.6,26.5,N/A,,Overcast,270,2014-02-23 15:55:00
10:15 AM,5.0,-2.2,72,29.94,7.0,West,19.6,-,N/A,,Overcast,260,2014-02-23 16:15:00
10:35 AM,6.8,-2.2,67,29.94,9.0,West,16.1,25.3,N/A,,Overcast,270,2014-02-23 16:35:00
10:55 AM,6.8,-2.2,67,29.94,9.0,West,13.8,20.7,N/A,,Overcast,270,2014-02-23 16:55:00
11:15 AM,6.8,-0.4,72,29.94,9.0,West,16.1,-,N/A,,Overcast,270,2014-02-23 17:15:00
11:35 AM,8.6,-0.4,67,29.94,10.0,West,18.4,24.2,N/A,,Mostly Cloudy,280,2014-02-23 17:35:00
11:55 AM,8.6,-0.4,67,29.93,10.0,West,15.0,-,N/A,,Mostly Cloudy,280,2014-02-23 17:55:00
12:15 PM,8.6,-2.2,62,29.93,10.0,West,19.6,23.0,N/A,,Scattered Clouds,270,2014-02-23 18:15:00
12:35 PM,10.4,-0.4,62,29.93,10.0,West,16.1,21.9,N/A,,Scattered Clouds,280,2014-02-23 18:35:00
12:55 PM,10.4,-0.4,62,29.92,10.0,WNW,19.6,28.8,N/A,,Scattered Clouds,290,2014-02-23 18:55:00
1:15 PM,12.2,1.4,62,29.93,10.0,West,20.7,-,N/A,,Mostly Cloudy,260,2014-02-23 19:15:00
1:35 PM,12.2,-0.4,57,29.93,10.0,West,25.3,32.2,N/A,,Mostly Cloudy,280,2014-02-23 19:35:00
1:55 PM,12.2,-0.4,57,29.93,10.0,West,18.4,26.5,N/A,,Mostly Cloudy,280,2014-02-23 19:55:00
2:15 PM,12.2,-0.4,57,29.93,10.0,WNW,16.1,19.6,N/A,,Overcast,290,2014-02-23 20:15:00
2:35 PM,12.2,-0.4,57,29.93,6.0,West,16.1,29.9,N/A,,Overcast,280,2014-02-23 20:35:00
2:55 PM,12.2,1.4,62,29.93,8.0,West,13.8,25.3,N/A,,Overcast,280,2014-02-23 20:55:00
3:15 PM,12.2,1.4,62,29.93,10.0,West,13.8,21.9,N/A,,Overcast,280,2014-02-23 21:15:00
3:35 PM,12.2,1.4,62,29.93,10.0,WNW,19.6,27.6,N/A,,Overcast,290,2014-02-23 21:35:00
3:55 PM,12.2,1.4,62,29.93,10.0,West,18.4,24.2,N/A,,Overcast,280,2014-02-23 21:55:00
4:15 PM,14.0,1.4,57,29.94,9.0,WNW,19.6,24.2,N/A,,Overcast,290,2014-02-23 22:15:00
4:35 PM,14.0,1.4,57,29.94,10.0,WNW,18.4,25.3,N/A,,Overcast,290,2014-02-23 22:35:00
4:55 PM,14.0,1.4,57,29.94,10.0,West,17.3,25.3,N/A,,Overcast,280,2014-02-23 22:55:00
5:15 PM,14.0,1.4,57,29.94,10.0,West,15.0,23.0,N/A,,Overcast,280,2014-02-23 23:15:00
5:35 PM,14.0,3.2,62,29.94,10.0,West,12.7,-,N/A,,Overcast,280,2014-02-23 23:35:00
5:55 PM,14.0,3.2,62,29.95,10.0,West,20.7,24.2,N/A,,Overcast,280,2014-02-23 23:55:00
6:15 PM,14.0,3.2,62,29.95,10.0,WNW,13.8,21.9,N/A,,Overcast,290,2014-02-24 00:15:00
6:35 PM,14.0,1.4,57,29.96,10.0,WNW,16.1,20.7,N/A,,Overcast,290,2014-02-24 00:35:00
6:55 PM,14.0,1.4,57,29.96,10.0,WNW,16.1,21.9,N/A,,Overcast,300,2014-02-24 00:55:00
7:15 PM,14.0,3.2,62,29.96,4.0,NW,19.6,24.2,N/A,,Overcast,310,2014-02-24 01:15:00
7:35 PM,12.2,3.2,67,29.97,3.0,WNW,15.0,19.6,N/A,,Overcast,300,2014-02-24 01:35:00
7:55 PM,12.2,5.0,73,29.97,3.0,WNW,15.0,18.4,N/A,,Overcast,300,2014-02-24 01:55:00
8:15 PM,12.2,6.8,79,29.97,1.8,WNW,13.8,19.6,N/A,,Overcast,300,2014-02-24 02:15:00
8:35 PM,12.2,5.0,73,29.97,1.2,WNW,11.5,-,N/A,,Overcast,300,2014-02-24 02:35:00
8:55 PM,12.2,6.8,79,29.98,1.0,NW,13.8,23.0,N/A,,Overcast,310,2014-02-24 02:55:00
9:15 PM,12.2,5.0,73,29.99,2.0,WNW,10.4,16.1,N/A,,Overcast,290,2014-02-24 03:15:00
9:35 PM,12.2,6.8,79,29.98,1.8,WNW,13.8,25.3,N/A,,Overcast,290,2014-02-24 03:35:00
9:55 PM,10.4,3.2,73,29.98,2.0,WNW,17.3,23.0,N/A,,Overcast,290,2014-02-24 03:55:00
10:15 PM,10.4,5.0,79,29.98,1.8,WNW,13.8,25.3,N/A,,Overcast,300,2014-02-24 04:15:00
10:35 PM,10.4,3.2,73,29.99,1.5,WNW,16.1,21.9,N/A,,Overcast,290,2014-02-24 04:35:00
10:55 PM,10.4,3.2,73,29.99,1.2,West,11.5,19.6,N/A,,Overcast,280,2014-02-24 04:55:00
11:15 PM,10.4,5.0,79,29.99,1.0,West,13.8,21.9,N/A,,Overcast,280,2014-02-24 05:15:00
11:35 PM,8.6,3.2,79,29.99,1.2,West,12.7,20.7,N/A,,Overcast,280,2014-02-24 05:35:00
11:55 PM,8.6,3.2,79,29.99,1.0,WNW,17.3,-,N/A,,Overcast,290,2014-02-24 05:55:00